DMSP 5D-3 F16 (USA 172)

Satellite information

Favourite Embed

Satellite Type and Status

PAYLOADIN ORBIT

Key statistics

Satellite DMSP 5D-3 F16 (USA 172) at a glance.

Uptime

7872

Days in orbit

Revolutions

≈ 14.1

Per day

Orbit

SSO

Sun Synchronous Orbit

Inclination

99.0

Latest

Satellite identification and parameters

Extended collection of information and parameters for DMSP 5D-3 F16 (USA 172).

Object identification

Identified? True

Debris? False

Object name: DMSP 5D-3 F16 (USA 172)

International designator: 2003-048A

Object number (NORAD): 28054

Object ID (CCSDS): 28054

Country: UNITED STATES OF AMERICA (US)

Current information (Y/N): Y

RCS size: LARGE

Orbital parameters

Period: 101.814 minutes

Inclination: 99.0145 deg

SMA: 7222.669 km

Apoapsis: 849.301 km

Periapsis: 839.767 km

RAAN: 142.4997 deg

Eccentricy: 0.00066

Argument of periapsis: 208.8875 deg

Mean anomaly: 181.2614 deg

Mean motion: 14.14347798 rev/day

Mean motion (dot): 0.00000149 rev/day2

B* drag term: 0.00010153 1/REarth

Two-line elements (TLE)

Creation date: May 7, 2025, 3:14 a.m.

Reference frame: TEME

Reference center: EARTH

Epoch: May 6, 2025, 11:16 p.m. UTC

TLE line 0: 0 DMSP 5D-3 F16 (USA 172)

TLE line 1: 1 28054U 03048A 25126.97002677 .00000149 00000-0 10153-3 0 9995

TLE line 2: 2 28054 99.0145 142.4997 0006600 208.8875 181.2614 14.14347798112066

Live tracking on map

Real-time ground track for satellite DMSP 5D-3 F16 (USA 172).

In-orbit conjunctions

There are no conjunctions computed for DMSP 5D-3 F16 (USA 172), at the moment. Check back to stay up to date, as we update our databases every day.

Go to all conjunctions

Associated space launch

The 16th flight of the Defense Meteorological Satellite Program Block 5D series with a main mission of cloud imagery and MW imaging/temperature/humidity sounding.

DMSP 5D-3 F16 (USA 172) was lifted into orbit during the mission ‘Titan II SLV | DMSP F-16’, on board a Titan II SLV space rocket.

The launch took place on Oct. 18, 2003, 4:17 p.m. from Space Launch Complex 4W.

For more information about the launch, click the button.

Launch to space Titan II SLV | DMSP F-16
Titan II SLV | DMSP F-16

Agency: N/A

Status: Launch Successful

Launch date: Oct. 18, 2003, 4:17 p.m. UTC

Rocket: Titan II SLV

Launch pad: Space Launch Complex 4W

Location: Vandenberg SFB, CA, USA

...

Latest news about this satellite

There are no fresh news available about this satellite. Check back as we update our databases every day.


Newsletter sign-up

Weekly statistics, charts and insights to help you stay on top of the space industry.